This demonstration page uses our WeatherBlox Daily Observations layout. Learn more.

Left ArrowRight Arrow

Hourly Observations for October 3, 2015

Temp ( °F °C ) Dew Point ( °F °C ) Humidity (%) Winds ( mph kmh ) Pressure ( in mb ) Visibility ( mi km ) Precip ( " mm )
2:55 am 02:55 Mostly Cloudy 48 9 37 3 66 66 SE 7 11 30.15 1021 10 16 0.00 0.00
3:15 am 03:15 Mostly Cloudy 48 9 37 3 66 66 SE 8 13 30.15 1021 10 16 0.00 0.00
3:35 am 03:35 Cloudy 48 9 37 3 66 66 SE 7 11 30.15 1021 10 16 0.00 0.00
4:15 am 04:15 Cloudy with Nearby Thunderstorms 48 9 39 4 71 71 ESE 9 15 30.15 1021 10 16 0.00 0.00
4:35 am 04:35 Cloudy 48 9 39 4 71 71 ESE 10 17 30.12 1020 10 16 0.00 0.00
5:15 am 05:15 Cloudy with Thunderstorms 46 8 39 4 76 76 S 6 9 30.15 1021 10 16 0.00 0.00
5:35 am 05:35 Cloudy 46 8 39 4 76 76 SE 9 15 30.15 1021 9 14 0.03 0.76
5:55 am 05:55 Cloudy 46 8 39 4 76 76 ESE 8 13 30.15 1021 10 16 0.04 1.02
6:15 am 06:15 Cloudy 46 8 41 5 82 82 E 5 7 30.15 1021 10 16 0.00 0.00
6:35 am 06:35 Cloudy 46 8 41 5 82 82 E 6 9 30.15 1021 10 16 0.00 0.00
6:55 am 06:55 Cloudy 46 8 41 5 82 82 E 14 22 30.12 1020 10 16 0.01 0.25
7:15 am 07:15 Cloudy 46 8 41 5 82 82 E 8 13 30.12 1020 10 16 0.00 0.00
7:35 am 07:35 Cloudy 46 8 41 5 82 82 E 10 17 30.12 1020 10 16 0.04 1.02
7:55 am 07:55 Cloudy 46 8 41 5 82 82 E 9 15 30.12 1020 9 14 0.04 1.02
8:15 am 08:15 Cloudy 46 8 39 4 76 76 ESE 7 11 30.15 1021 10 16 0.00 0.00
8:35 am 08:35 Cloudy 46 8 39 4 76 76 ESE 5 7 30.15 1021 10 16 0.02 0.51
8:55 am 08:55 Cloudy 46 8 39 4 76 76 SE 8 13 30.15 1021 10 16 0.02 0.51
9:15 am 09:15 Cloudy 46 8 39 4 76 76 SE 8 13 30.15 1021 10 16 0.00 0.00
9:35 am 09:35 Cloudy 46 8 39 4 76 76 SSE 5 7 30.18 1022 10 16 0.00 0.00
9:55 am 09:55 Cloudy 46 8 39 4 76 76 SE 3 6 30.18 1022 8 13 0.01 0.25
10:15 am 10:15 Cloudy 46 8 39 4 76 76 E 7 11 30.15 1021 10 16 0.00 0.00
10:35 am 10:35 Cloudy 46 8 41 5 82 82 ESE 9 15 30.18 1022 10 16 0.02 0.51
10:55 am 10:55 Cloudy 46 8 41 5 82 82 ESE 10 17 30.15 1021 10 16 0.02 0.51
11:15 am 11:15 Cloudy 46 8 39 4 76 76 ESE 12 19 30.15 1021 10 16 0.00 0.00
11:35 am 11:35 Cloudy 46 8 39 4 76 76 ESE 9 15 30.15 1021 10 16 0.02 0.51
11:55 am 11:55 Cloudy 46 8 41 5 82 82 E 7 11 30.15 1021 10 16 0.03 0.76
12:15 pm 12:15 Cloudy 46 8 41 5 82 82 E 10 17 30.15 1021 10 16 0.00 0.00
12:35 pm 12:35 Cloudy 46 8 41 5 82 82 ESE 9 15 30.12 1020 10 16 0.00 0.00
12:55 pm 12:55 Cloudy 46 8 41 5 82 82 ESE 7 11 30.15 1021 10 16 0.00 0.00
1:15 pm 13:15 Cloudy 48 9 41 5 76 76 ESE 9 15 30.12 1020 10 16 0.00 0.00
1:35 pm 13:35 Cloudy 48 9 43 6 82 82 ESE 8 13 30.12 1020 10 16 0.00 0.00
1:55 pm 13:55 Cloudy 48 9 41 5 76 76 ESE 10 17 30.12 1020 10 16 0.00 0.00
2:15 pm 14:15 Cloudy 50 10 43 6 76 76 ESE 10 17 30.06 1018 10 16 0.00 0.00
2:35 pm 14:35 Cloudy 52 11 43 6 72 72 E 10 17 30.06 1018 10 16 0.00 0.00
2:55 pm 14:55 Cloudy 54 12 43 6 67 67 ESE 10 17 30.06 1018 10 16 0.00 0.00
3:15 pm 15:15 Cloudy 55 13 43 6 63 63 ESE 9 15 30.03 1017 10 16 0.00 0.00
3:35 pm 15:35 Cloudy 57 14 43 6 59 59 ESE 14 22 30.00 1016 10 16 0.00 0.00
3:55 pm 15:55 Cloudy 55 13 43 6 63 63 ESE 12 19 30.00 1016 10 16 0.00 0.00
4:15 pm 16:15 Cloudy 57 14 41 5 55 55 ESE 15 24 30.00 1016 10 16 0.00 0.00
4:35 pm 16:35 Cloudy 57 14 41 5 55 55 ESE 14 22 30.00 1016 10 16 0.00 0.00
4:55 pm 16:55 Cloudy 55 13 39 4 55 55 ESE 12 19 30.00 1016 10 16 0.00 0.00
5:15 pm 17:15 Cloudy 55 13 39 4 55 55 ESE 14 22 30.00 1016 10 16 0.00 0.00
5:35 pm 17:35 Cloudy 55 13 41 5 59 59 E 9 15 30.03 1017 10 16 0.00 0.00
5:55 pm 17:55 Cloudy 55 13 41 5 59 59 ESE 7 11 30.03 1017 10 16 0.00 0.00
6:15 pm 18:15 Cloudy 55 13 41 5 59 59 ESE 6 9 30.03 1017 10 16 0.00 0.00
6:35 pm 18:35 Cloudy 55 13 39 4 55 55 ESE 6 9 30.03 1017 10 16 0.00 0.00
6:55 pm 18:55 Cloudy 55 13 41 5 59 59 ESE 5 7 30.03 1017 10 16 0.00 0.00
7:15 pm 19:15 Cloudy 55 13 43 6 63 63 E 6 9 30.03 1017 10 16 0.00 0.00
7:35 pm 19:35 Cloudy 55 13 41 5 59 59 E 6 9 30.03 1017 10 16 0.00 0.00
7:55 pm 19:55 Cloudy 55 13 43 6 63 63 E 7 11 30.03 1017 10 16 0.00 0.00
8:15 pm 20:15 Cloudy 55 13 39 4 55 55 E 8 13 30.03 1017 10 16 0.00 0.00
8:35 pm 20:35 Cloudy 55 13 39 4 55 55 E 8 13 30.06 1018 10 16 0.00 0.00
8:55 pm 20:55 Cloudy 55 13 37 3 51 51 E 10 17 30.06 1018 10 16 0.00 0.00
9:15 pm 21:15 Cloudy 55 13 37 3 51 51 E 9 15 30.06 1018 10 16 0.00 0.00
9:35 pm 21:35 Cloudy 55 13 37 3 51 51 E 10 17 30.06 1018 10 16 0.00 0.00
9:55 pm 21:55 Cloudy 54 12 37 3 54 54 E 14 22 30.09 1019 10 16 0.00 0.00
10:15 pm 22:15 Cloudy 54 12 37 3 54 54 E 12 19 30.09 1019 10 16 0.00 0.00
10:35 pm 22:35 Cloudy 54 12 37 3 54 54 ESE 7 11 30.12 1020 10 16 0.00 0.00
10:55 pm 22:55 Cloudy 54 12 37 3 54 54 ESE 12 19 30.12 1020 10 16 0.00 0.00
11:15 pm 23:15 Cloudy 54 12 36 2 51 51 ESE 9 15 30.12 1020 10 16 0.00 0.00
11:35 pm 23:35 Cloudy 54 12 36 2 51 51 ESE 9 15 30.12 1020 10 16 0.00 0.00
11:55 pm 23:55 Cloudy 54 12 37 3 54 54 ESE 8 13 30.12 1020 10 16 0.00 0.00

Powered by AerisWeather